SHT21B EGJB-EGLL

Flight info

Callsign SHT21B
Flight time 0h 34m
Altitude 19000
Route ORIST L982 ROXOG
Aircraft A319/M-SDE3FGHIRWY/LB1

Departure

Time 2026-04-30 18:29
Airport Guernsey Airport (EGJB)

Arrival

Time 2026-04-30 19:04
Airport London Heathrow Airport (EGLL)
Time Latitude Longitude Altitude Speed Heading
2026-04-30 18:25 49.43350 -2.59516 327 ft 0 kts 176°
2026-04-30 18:26 49.43346 -2.59638 328 ft 14 kts 275°
2026-04-30 18:26 49.43346 -2.59809 326 ft 18 kts 266°
2026-04-30 18:26 49.43337 -2.60053 310 ft 28 kts 268°
2026-04-30 18:27 49.43332 -2.60660 296 ft 28 kts 278°
2026-04-30 18:27 49.43364 -2.60941 308 ft 25 kts 275°
2026-04-30 18:28 49.43421 -2.61351 316 ft 18 kts 327°
2026-04-30 18:28 49.43465 -2.61320 315 ft 0 kts 88°
2026-04-30 18:28 49.43465 -2.61319 315 ft 0 kts 88°
2026-04-30 18:29 49.43467 -2.61234 315 ft 31 kts 87°
2026-04-30 18:29 49.43562 -2.57482 1341 ft 144 kts 91°
2026-04-30 18:30 49.43650 -2.54223 2160 ft 171 kts 91°
2026-04-30 18:30 49.43926 -2.50136 2832 ft 218 kts 67°
2026-04-30 18:31 49.45063 -2.48476 3421 ft 237 kts 26°
2026-04-30 18:31 49.48222 -2.47090 5239 ft 242 kts 14°
2026-04-30 18:32 49.51837 -2.45879 6327 ft 285 kts 14°
2026-04-30 18:32 49.53798 -2.45196 7182 ft 291 kts 15°
2026-04-30 18:32 49.57800 -2.43725 9004 ft 300 kts 16°
2026-04-30 18:33 49.59840 -2.42956 9919 ft 304 kts 16°
2026-04-30 18:33 49.64000 -2.41374 11538 ft 312 kts 16°
2026-04-30 18:33 49.66119 -2.40561 12340 ft 316 kts 16°
2026-04-30 18:34 49.68251 -2.39658 13128 ft 319 kts 23°
2026-04-30 18:34 49.71960 -2.35904 14138 ft 337 kts 51°
2026-04-30 18:34 49.73527 -2.33065 14318 ft 357 kts 54°
2026-04-30 18:35 49.75150 -2.30079 14787 ft 366 kts 53°
2026-04-30 18:35 49.76804 -2.27048 15405 ft 371 kts 53°
2026-04-30 18:35 49.78478 -2.23989 16062 ft 374 kts 53°
2026-04-30 18:36 49.81872 -2.17821 17396 ft 379 kts 54°
2026-04-30 18:36 49.83590 -2.14690 18047 ft 383 kts 54°
2026-04-30 18:36 49.87039 -2.08386 18990 ft 388 kts 54°
2026-04-30 18:37 49.88782 -2.05186 19085 ft 390 kts 54°
2026-04-30 18:37 49.90540 -2.01952 19103 ft 393 kts 54°
2026-04-30 18:37 49.92303 -1.98709 19098 ft 394 kts 54°
2026-04-30 18:37 49.94068 -1.95465 19098 ft 394 kts 54°
2026-04-30 18:38 49.95833 -1.92214 19092 ft 394 kts 54°
2026-04-30 18:38 49.97600 -1.88956 19095 ft 394 kts 54°
2026-04-30 18:38 49.99476 -1.85836 19097 ft 398 kts 46°
2026-04-30 18:38 50.01694 -1.83229 19094 ft 403 kts 35°
2026-04-30 18:39 50.04175 -1.81162 19092 ft 405 kts 31°
2026-04-30 18:39 50.06689 -1.79179 19097 ft 405 kts 30°
2026-04-30 18:39 50.09173 -1.77224 19098 ft 405 kts 31°
2026-04-30 18:39 50.11670 -1.75200 19098 ft 403 kts 34°
2026-04-30 18:40 50.13940 -1.72690 19101 ft 398 kts 44°
2026-04-30 18:40 50.16070 -1.69921 19103 ft 398 kts 44°
2026-04-30 18:40 50.18198 -1.67157 19103 ft 398 kts 44°
2026-04-30 18:40 50.20329 -1.64392 19098 ft 399 kts 44°
2026-04-30 18:41 50.22463 -1.61630 19100 ft 399 kts 44°
2026-04-30 18:41 50.24605 -1.58870 19102 ft 400 kts 42°
2026-04-30 18:41 50.26948 -1.56496 19101 ft 405 kts 31°
2026-04-30 18:41 50.29556 -1.54796 19102 ft 409 kts 21°
2026-04-30 18:42 50.32240 -1.53499 19102 ft 409 kts 20°
2026-04-30 18:42 50.37680 -1.50844 19104 ft 409 kts 20°
2026-04-30 18:42 50.40398 -1.49504 19104 ft 409 kts 21°
2026-04-30 18:45 50.66276 -1.32176 19130 ft 403 kts 32°
2026-04-30 18:45 50.68740 -1.30060 19143 ft 403 kts 32°
2026-04-30 18:45 50.71191 -1.27948 19066 ft 398 kts 32°
2026-04-30 18:46 50.73590 -1.25875 18834 ft 389 kts 32°
2026-04-30 18:46 50.75951 -1.23832 18602 ft 385 kts 33°
2026-04-30 18:46 50.78246 -1.21711 18330 ft 379 kts 35°
2026-04-30 18:46 50.80452 -1.19493 17852 ft 374 kts 37°
2026-04-30 18:47 50.82576 -1.17256 17361 ft 370 kts 38°
2026-04-30 18:47 50.84697 -1.14992 16873 ft 366 kts 38°
2026-04-30 18:47 50.86804 -1.12748 16382 ft 363 kts 38°
2026-04-30 18:47 50.88898 -1.10537 15900 ft 361 kts 37°
2026-04-30 18:48 50.90983 -1.08357 15417 ft 358 kts 37°
2026-04-30 18:48 50.93060 -1.06199 14932 ft 356 kts 37°
2026-04-30 18:48 50.95130 -1.04052 14445 ft 354 kts 37°
2026-04-30 18:48 50.97189 -1.01920 13962 ft 353 kts 37°
2026-04-30 18:49 50.99234 -0.99796 13440 ft 350 kts 37°
2026-04-30 18:49 51.01104 -0.97392 12972 ft 343 kts 49°
2026-04-30 18:49 51.02706 -0.94586 12572 ft 344 kts 52°
2026-04-30 18:49 51.04272 -0.91797 12171 ft 342 kts 52°
2026-04-30 18:50 51.05852 -0.88990 11760 ft 339 kts 52°
2026-04-30 18:50 51.07421 -0.86200 11353 ft 337 kts 51°
2026-04-30 18:50 51.08982 -0.83423 10948 ft 336 kts 51°
2026-04-30 18:50 51.10530 -0.80665 10578 ft 332 kts 51°
2026-04-30 18:51 51.12035 -0.77986 10455 ft 318 kts 51°
2026-04-30 18:51 51.13479 -0.75408 10339 ft 306 kts 51°
2026-04-30 18:51 51.14879 -0.72904 10105 ft 300 kts 52°
2026-04-30 18:51 51.16252 -0.70445 9951 ft 296 kts 52°
2026-04-30 18:52 51.17614 -0.67995 9676 ft 295 kts 52°
2026-04-30 18:52 51.18971 -0.65550 9308 ft 294 kts 52°
2026-04-30 18:52 51.20321 -0.63116 8942 ft 292 kts 52°
2026-04-30 18:52 51.21764 -0.60867 8733 ft 289 kts 38°
2026-04-30 18:53 51.23613 -0.59532 8598 ft 297 kts 14°
2026-04-30 18:53 51.25682 -0.59463 8482 ft 301 kts 349°
2026-04-30 18:53 51.27579 -0.60711 8360 ft 300 kts 324°
2026-04-30 18:53 51.29120 -0.62928 8102 ft 298 kts 313°
2026-04-30 18:54 51.30584 -0.65274 7742 ft 297 kts 313°
2026-04-30 18:54 51.32035 -0.67622 7376 ft 297 kts 313°
2026-04-30 18:54 51.33485 -0.69971 6998 ft 296 kts 313°
2026-04-30 18:54 51.34932 -0.72312 6627 ft 296 kts 313°
2026-04-30 18:55 51.36388 -0.74662 6112 ft 299 kts 313°
2026-04-30 18:55 51.39623 -0.78525 5092 ft 289 kts 346°
2026-04-30 18:55 51.41600 -0.78830 4615 ft 283 kts 359°
2026-04-30 18:56 51.44942 -0.81445 3781 ft 268 kts 302°
2026-04-30 18:56 51.45607 -0.84094 3482 ft 249 kts 270°
2026-04-30 18:56 51.45614 -0.86791 3155 ft 240 kts 267°
2026-04-30 18:57 51.47409 -0.90965 3076 ft 238 kts 339°
2026-04-30 18:57 51.48989 -0.91302 3075 ft 223 kts 15°
2026-04-30 18:57 51.50302 -0.90275 3074 ft 203 kts 52°
2026-04-30 18:58 51.50800 -0.86407 2849 ft 177 kts 108°
2026-04-30 18:58 51.50365 -0.84579 2702 ft 175 kts 117°
2026-04-30 18:58 51.49850 -0.82821 2539 ft 176 kts 118°
2026-04-30 18:59 51.48746 -0.79202 2214 ft 184 kts 118°
2026-04-30 19:00 51.47614 -0.73614 2004 ft 176 kts 91°
2026-04-30 19:00 51.47629 -0.71653 2009 ft 175 kts 92°
2026-04-30 19:00 51.47654 -0.67870 2040 ft 163 kts 93°
2026-04-30 19:01 51.47673 -0.64353 1960 ft 153 kts 93°
2026-04-30 19:01 51.47682 -0.62654 1817 ft 152 kts 92°
2026-04-30 19:02 51.47699 -0.59358 1452 ft 145 kts 92°
2026-04-30 19:02 51.47715 -0.56219 1070 ft 134 kts 91°
2026-04-30 19:03 51.47728 -0.53247 698 ft 131 kts 89°
2026-04-30 19:03 51.47746 -0.50256 376 ft 137 kts 89°
2026-04-30 19:04 51.47754 -0.47345 86 ft 116 kts 90°
2026-04-30 19:04 51.47761 -0.45713 84 ft 33 kts 90°
2026-04-30 19:05 51.47646 -0.45465 86 ft 10 kts 179°
2026-04-30 19:05 51.47596 -0.45702 86 ft 15 kts 272°
2026-04-30 19:06 51.47594 -0.46117 87 ft 21 kts 269°
2026-04-30 19:06 51.47593 -0.46369 86 ft 24 kts 269°
2026-04-30 19:06 51.47582 -0.46912 88 ft 25 kts 266°
2026-04-30 19:07 51.47581 -0.47375 88 ft 21 kts 270°
2026-04-30 19:07 51.47580 -0.47618 86 ft 23 kts 270°
2026-04-30 19:08 51.47578 -0.48141 88 ft 21 kts 270°
2026-04-30 19:08 51.47520 -0.48477 86 ft 16 kts 183°
2026-04-30 19:08 51.47399 -0.48474 88 ft 19 kts 179°
2026-04-30 19:09 51.47271 -0.48531 89 ft 8 kts 270°
2026-04-30 19:09 51.47271 -0.48587 86 ft 0 kts 269°